Weather in Chiatura

Georgia     42°17′18″N   43°16′26″E
temp.,
°C
wind,
m/s
gust,
m/s
humid.,
%
clouds,
%
prec.,
mm/h
press.,
hPa
HPBL,
m
9 may, sun
sun901:00+14ene3773100 0.0 1014219
04:00+13sw1181100 0.0 101413
07:00+11sse1289100 0.0 1016156
10:00+18e3561100 0.0 1011680
13:00+12w81395100 0.4 1014879
16:00+9wnw71497100 2.8 1016947
19:00+7w81498100 2.0 10211165
22:00+5w81398100 3.3 1024974
10 may, mon
mon1001:00+5w61298100 0.6 10241082
04:00+5w61299100 1.0 1024864
07:00+4w51198100 0.5 10241059
10:00+5w6119487 1.6 10251021
13:00+8w7108436 1.6 10241350
16:00+9w7106710 2.6 10231534
19:00+7w59764 0.3 1024997
22:00+2sse01978 0.3 102614
11 may, tue
tue1101:00+1ne119636 0.0 102519
04:00+2ene239234 0.0 102488
07:00+3ne238267 0.0 102491
10:00+10ese2347100 0.0 10201005
13:00+15ese333775 0.0 10181764
16:00+16w2234100 0.0 10171738
19:00+12wsw34666 0.0 1017280
22:00+6ne228621 0.0 102019
12 may, wed
wed1201:00+6ne33735 0.0 101949
04:00+6ene35648 0.0 101797
07:00+10e413600 0.0 1016501
10:00+17ese712483 0.0 1014823
13:00+22ese66400 0.0 10131086
16:00+24se43390 0.0 10131171
19:00+20e22640 0.0 101338
22:00+13ene35750 0.0 101565
13 may, thu
thu1301:00+12ene48725 0.0 1015176
04:00+12ene49674 0.0 1015231
07:00+13ene411675 0.0 1015291
10:00+22e510453 0.0 1013695
13:00+27ese67350 0.0 1012997
16:00+28ese67333 0.0 10111116
19:00+23e511508 0.0 1012415
22:00+20ene51351100 0.0 1014414